Flag for Poland Weather past 2 weeks in Białystok, Poland

Now
73 °F

Partly sunny.


Feels Like: 77 °F
Forecast: 62 / 76 °F
Wind: 8 mph from East

Location: Grodno

Current Time: Jul 23, 2014 at 12:21:22 PM

Latest Report: Jul 23, 2014 at 11:30 AM


Visibility: N/A

Pressure: 30.07 "Hg

Humidity: 53%

Dew point: 55 °F

Location of BiałystokLocation

Historic Weather in Białystok — Graph

°F

Białystok temperature yesterday

Maximum temperature yesterday: 81 °F (at 2:00 PM)
Minimum temperature yesterday: 55 °F (at 5:00 AM)
Average temperature yesterday: 72 °F

Past Weeks' High & Low Weather Summary

 TemperatureHumidityPressure
High84 °F (Jul 8, 2:00 PM)100% (Jul 12, 2:00 PM)30.15 "Hg (Jul 12, 2:00 PM)
Low54 °F (Jul 14, 5:00 AM)35% (Jul 10, 5:00 PM)29.65 "Hg (Jul 12, 5:00 PM)
Average71 °F66%29.94 "Hg
* Reported Jul 8 11:00 AM — Jul 23 11:00 AM, Białystok, Weather by CustomWeather, © 2014

Note: Actual official high and low records may vary slightly from our data, if they occured in-between our weather recording intervals... More about our weather records

Advertising

Białystok weather history for previous 24 hours

 ConditionsComfort  
Time TempWeatherWind HumidityBarometerVisibility
11:00 AM
Jul 23
73 °FPartly sunny.8 mph53%30.07 "HgN/A
10:00 AM70 °FPartly sunny.8 mph60%30.07 "HgN/A
7:30 AM61 °FPartly sunny.6 mph83%30.07 "HgN/A
7:00 AM61 °FPartly sunny.6 mph83%30.07 "HgN/A
6:00 AM59 °FSunny.6 mph88%30.07 "Hg10 mi
5:00 AM59 °FClear.6 mph82%30.04 "Hg10 mi
6:00 PM
Jul 22
73 °FBroken clouds.8 mph53%29.98 "HgN/A
5:00 PM75 °FPartly sunny.10 mph50%29.98 "HgN/A
4:00 PM79 °FPartly sunny.10 mph45%29.98 "HgN/A
3:30 PM79 °FPartly sunny.8 mph45%29.98 "HgN/A
3:00 PM79 °FPartly sunny.8 mph45%29.98 "HgN/A
2:30 PM81 °FSprinkles. Partly sunny.10 mph39%29.98 "HgN/A
2:00 PM81 °FPartly sunny.8 mph39%29.98 "HgN/A
1:30 PM79 °FPartly sunny.8 mph42%29.98 "HgN/A
1:00 PM79 °FPartly sunny.8 mph42%29.98 "HgN/A
12:30 PM77 °FScattered clouds.8 mph44%30.01 "HgN/A
12:00 PM77 °FScattered clouds.8 mph44%30.01 "HgN/A
Weather by CustomWeather, © 2014

See weather overviewHow to use our weather pages